Location: Cucq
(50.4773°N, 1.6202°E)
Time: 08:21:32
(UTC+00:00)

USA 215 - Pass Details

Date: 07 August 2020
Orbit: 1102 x 1106 km, 123.0° (Epoch: 08 August)

Event Time Altitude Azimuth Distance (km) Brightness Sun altitude
Rises 03:22:46 0° 59° (ENE) 3,929 8.2 -9.7°
Reaches altitude 10° 03:25:15 10° 59° (ENE) 2,969 7.1 -9.4°
Maximum altitude 03:31:48 81° 333° (NNW) 1,122 3.4 -8.6°
Drops below altitude 10° 03:38:21 10° 248° (WSW) 2,958 4.9 -7.8°
Enters shadow 03:38:48 - 247° (WSW) 3,134 5.0 -7.8°
